Regional Weather Roundup
Issued by NWS

Home | Current Version | Previous Version | Text Only | Print | Product List | Glossary Off
Versions: 1 2 3 4 5 6 7 8 9 10 11 12 13 14 15 16 17 18 19 20 21 22 23 24 25 26 27 28 29 30 31 32 33 34 35 36 37 38 39 40 41 42 43 44 45 46 47 48 49 50

000
ASUS43 KDTX 020510
RWRMI
MICHIGAN HOURLY REGIONAL WEATHER ROUNDUP
NATIONAL WEATHER SERVICE DETROIT/PONTIAC MI
ISSUED BY NATIONAL WEATHER SERVICE GRAND RAPIDS MI
1200 AM EST FRI DEC 02 2016

NOTE: "FAIR" INDICATES FEW OR NO CLOUDS BELOW 12,000 FEET WITH NO
SIGNIFICANT WEATHER AND/OR OBSTRUCTION TO VISIBILITY.

MIZ047>049-052>055-059>063-066>070-074>076-081>083-020600-
SOUTHEAST LOWER MICHIGAN

CITY           SKY/WX    TMP DP  RH WIND       PRES   REMARKS
ADRIAN         CLOUDY    36  33  89 W9        29.94R WCI  29
ALMA           CLOUDY    38  35  86 W8        29.86S WCI  33
ANN ARBOR      CLOUDY    38  35  89 SW10      29.90R WCI  31
BAD AXE        CLOUDY    37  33  84 W7        29.82R WCI  32
DETROIT CITY   CLOUDY    40  36  86 W12       29.89R WCI  33
DETROIT        CLOUDY    39  36  89 W13       29.91R WCI  31
FLINT          CLOUDY    39  36  89 W9        29.87R WCI  33
GROSSE ILE     CLOUDY    39  34  83 W10       29.90S WCI  32
HILLSDALE      CLOUDY    36  32  87 SW13G18   29.91S WCI  27
HOWELL         CLOUDY    38  35  87 SW13      29.88R WCI  30

CITY           SKY/WX    TMP DP  RH WIND       PRES   REMARKS
JACKSON        CLOUDY    37 N/A N/A W12       29.91R WCI  29
LANSING        MOCLDY    38  34  85 W12       29.89R WCI  30
MASON          CLOUDY    37  35  90 SW7       29.89R WCI  32
MONROE         CLOUDY    38  34  85 W12       29.92R WCI  30
MT. CLEMENS    CLOUDY    40  37  89 W12       29.85S WCI  33
PONTIAC        CLOUDY    38  34  85 W8        29.86R WCI  32
PORT HOPE        N/A     39  32  76 W10       29.79R WCI  32
PORT HURON     CLOUDY    39  36  87 SW7       29.85R WCI  34
TRI CITIES     CLOUDY    39  36  89 W12       29.85R WCI  32
YPSILANTI      CLOUDY    40  36  86 W14       29.91R WCI  32
$$
MIZ043>046-050>051-056>058-064>065-071>073-077>080-020600-
SOUTHWEST LOWER MICHIGAN

CITY           SKY/WX    TMP DP  RH WIND       PRES   REMARKS
BATTLE CREEK   CLOUDY    38  35  89 SW14      29.92R WCI  30
BENTON HARBOR  CLOUDY    39  34  82 W14       29.96R WCI  31
BIG RAPIDS     MIX PCPN  37  34  87 W6        29.85R WCI  33
COLDWATER      CLOUDY    37  33  85 SW10      29.94R WCI  30
HOLLAND        CLOUDY    41  34  76 W10       29.91R
GRAND RAPIDS   CLOUDY    38  34  85 W9        29.90R WCI  31
KALAMAZOO      LGT RAIN  38  33  82 SW13      29.93R WCI  30
MARSHALL       CLOUDY    37  34  90 SW9       29.91R WCI  30
MOUNT PLEASANT CLOUDY    37  36  94 W6        29.84R WCI  33
MUSKEGON       CLOUDY    42  34  73 W16G23    29.90R
STURGIS        CLOUDY    37  33  84 SW12      29.94S WCI  29
$$
MIZ016>042-020600-
NORTHERN LOWER MICHIGAN

CITY           SKY/WX    TMP DP  RH WIND       PRES   REMARKS
ALPENA         CLOUDY    36  29  75 W12G21    29.77R WCI  28
BEAVER ISLAND  CLOUDY    34  30  83 W12G20    29.82S WCI  26
BELLAIRE       CLOUDY    35  32  88 NW5       29.84R WCI  31
CADILLAC       CLOUDY    34  31  89 W7        29.82R WCI  28
CHARLEVOIX     CLOUDY    37  30  75 NW16G22   29.85R WCI  27
GAYLORD        CLOUDY    34  29  82 NW8       29.78R WCI  27
HOUGHTON LAKE  CLOUDY    35  32  88 W12       29.82R WCI  27
MANISTEE       LGT RAIN  36  32  85 NW7       29.88R WCI  30
OSCODA         MOCLDY    37  30  76 MISG      29.78R
PELLSTON       CLOUDY    35  29  78 W13       29.80R WCI  26
TRAVERSE CITY  CLOUDY    38  28  67 NW12      29.84R WCI  30
LUDINGTON      CLOUDY    37  34  87 NW8       29.88R WCI  31
$$
MIZ007>008-015-020600-
EASTERN UPPER MICHIGAN

CITY           SKY/WX    TMP DP  RH WIND       PRES   REMARKS
KINROSS        FLURRIES  32  32 100 W14       29.72  WCI  22
MACKINAC ISLAN CLOUDY    34  31  87 W17G24    29.76R WCI  24
NEWBERRY       FLURRIES  32  31  96 W13G18    29.76S WCI  22
S. S. MARIE    LGT RAIN  36  34  92 NW13G24   29.70R WCI  27
$$
MIZ004>006-011>014-085-020600-
CENTRAL UPPER MICHIGAN

CITY           SKY/WX    TMP DP  RH WIND       PRES   REMARKS
MANISTIQUE     MOCLDY    32  28  85 W13       29.82R WCI  22
ESCANABA       FLURRIES  31  26  82 W6        29.88R WCI  25
MENOMINEE        N/A     34  25  69 NW5       29.90R WCI  30
SAWYER-GWINN   CLOUDY    29  23  77 NW13      29.84S WCI  19
$$
MIZ001>003-009>011-084-020600-
WESTERN UPPER MICHIGAN

CITY           SKY/WX    TMP DP  RH WIND       PRES   REMARKS
IRON MOUNTAIN  CLOUDY    30  22  72 NW10      29.86R WCI  21
HOUGHTON       CLOUDY    29  22  75 NW15      29.86R WCI  18
COPPER HARBOR    N/A     33  30  88 N23       29.85R WCI  21
IRONWOOD       LGT SNOW  28  27  96 NW7       29.93R FOG     WCI  21
$$

ABBREVIATIONS USED IN REMARKS
   TC - TEMPERATURE IN CELSIUS
  WCI - WIND CHILL INDEX
   HX - HEAT INDEX
  VSB - VISIBILITY





USA.gov is the U.S. government's official web portal to all federal, state and local government web resources and services.